Voltar ao catálogo

ZORKIY-2M NO. 6

AtivoCiênciaSSO
NORAD 59775·PAYLOAD·🇷🇺 Russia
Este nome de satélite ainda não foi confirmado por fontes oficiais.

Lançado May 16, 2024 de Plesetsk Cosmodrome

Loading…

Próximas Passagens (próximas 24 horas)

TLE

AtualizadoSource: Space-Track

Época: Sep 14, 2026, 14:35 UTC

1 59775U 24092C   26257.60773962  .00008410  00000-0  28404-3 0  9996
2 59775  97.6755  31.4377 0007640 222.9023 137.1622 15.30911059129251

Acompanhe ZORKIY-2M NO. 6 em tempo real com AllMySat

Download on the App Store